Date,TemperatureHighF,TemperatureAvgF,TemperatureLowF,DewpointHighF,DewpointAvgF,DewpointLowF,HumidityHigh,HumidityAvg,HumidityLow,PressureMaxIn,PressureMinIn,WindSpeedMaxMPH,WindSpeedAvgMPH,GustSpeedMaxMPH,PrecipitationSumIn
2013-5-1,62.0,49.0,37.0,42.0,36.0,31.0,95,66,35,30.31,30.16,4,1,10,0.00
2013-5-2,64.0,52.6,40.0,36.0,28.8,17.0,70,44,20,30.22,30.15,3,1,11,0.00
2013-5-3,67.0,53.9,38.0,45.0,39.2,33.0,87,59,36,30.18,30.03,4,1,12,0.00
2013-5-4,62.0,53.6,45.0,50.0,42.5,37.0,88,68,41,30.12,29.97,6,2,22,0.00
2013-5-5,65.0,55.8,43.0,52.0,46.7,40.0,90,73,58,30.19,30.12,3,1,9,0.00
2013-5-6,73.0,61.0,51.0,50.0,47.9,43.0,87,64,40,30.16,30.03,2,0,6,0.00
2013-5-7,71.0,59.8,46.0,48.0,44.5,42.0,88,59,40,30.08,29.86,5,1,14,0.00
2013-5-8,62.0,56.2,50.0,55.0,50.2,42.0,95,80,65,29.87,29.67,4,2,14,0.05
2013-5-9,57.0,50.3,43.0,47.0,42.8,38.0,94,77,52,29.83,29.65,7,3,21,0.02
2013-5-10,62.0,53.0,49.0,49.0,44.7,-99.9,91,78,51,29.91,29.67,5,3,19,0.01
2013-5-11,56.0,48.8,43.0,50.0,43.7,40.0,95,83,62,29.91,29.78,6,2,16,0.46
2013-5-12,58.0,48.6,40.0,51.0,42.4,-99.9,96,83,50,30.00,29.89,4,2,11,0.30
2013-5-13,59.0,52.6,46.0,51.0,42.6,34.0,96,71,41,29.90,29.79,7,3,19,0.03
2013-5-14,53.0,47.6,44.0,48.0,42.8,39.0,96,84,62,29.81,29.23,4,2,13,0.55
2013-5-15,57.0,47.1,42.0,44.0,40.5,37.0,92,79,51,29.54,29.14,5,3,18,0.38
2013-5-16,59.0,46.5,36.0,46.0,26.0,-99.9,97,74,38,29.54,29.47,5,1,12,0.02
2013-5-17,53.0,48.9,44.0,45.0,40.3,-99.9,93,80,70,29.80,29.55,2,0,9,0.00
2013-5-18,60.0,52.8,47.0,46.0,44.3,42.0,84,73,60,29.79,29.71,3,1,8,0.00
2013-5-19,67.0,55.8,46.0,51.0,47.2,43.0,92,74,54,29.88,29.78,3,0,10,0.00
2013-5-20,62.0,57.3,52.0,58.0,53.4,49.0,93,88,81,29.89,29.82,2,0,8,0.01
2013-5-21,61.0,55.7,53.0,56.0,50.7,47.0,90,83,70,30.06,29.89,2,1,9,0.00
2013-5-22,58.0,51.9,47.0,48.0,44.6,36.0,93,77,54,30.09,30.00,2,1,9,0.00
2013-5-23,53.0,46.1,42.0,42.0,37.6,33.0,88,73,51,30.01,29.87,2,1,12,0.10
2013-5-24,48.0,43.6,41.0,45.0,40.4,37.0,93,88,79,30.02,29.61,5,2,17,0.39
2013-5-25,61.0,50.4,40.0,43.0,40.2,38.0,96,71,44,30.16,30.01,2,0,10,0.11
2013-5-26,69.0,56.1,40.0,43.0,39.6,34.0,90,57,35,30.12,29.95,2,0,10,0.00
2013-5-27,63.0,54.1,41.0,45.0,40.2,29.0,90,62,29,29.95,29.63,4,2,15,0.00
2013-5-28,55.0,51.3,48.0,52.0,47.9,42.0,97,89,61,29.63,29.46,4,0,13,0.87
2013-5-29,55.0,50.5,46.0,53.0,48.6,45.0,96,93,83,29.75,29.55,1,0,6,0.02
2013-5-30,59.0,53.9,51.0,54.0,51.3,50.0,98,91,80,29.99,29.73,1,0,10,0.21
2013-5-31,71.0,59.8,51.0,57.0,52.3,48.0,92,78,57,30.11,29.98,2,0,10,0.01